Wind_Speed
13 13 12 13 13 12 12 13 12 10 10 9 8 8 7 7 7 8 9 9 7 5 5 5 3 1 1 1 2 4 5 5 7 9 10 9 9 9 8 7 6 4 2 2 2 1 1 2 2
8 9 11 11 10 10 11 10 10 10 9 6 7 8 7 8 9 10 10 11 11 9 7 7 6 5 4 3 3 3 4 4 5 5 6 7 7 7 7 6 6 5 4 3 3 3 4 4 3
7 9 10 10 12 13 12 11 10 10 8 7 7 8 8 7 8 10 9 10 12 12 11 10 9 9 9 8 6 5 6 7 7 7 7 7 6 6 6 6 5 4 4 4 3 3 5 6 6
9 9 9 11 12 13 14 15 15 13 12 11 11 10 8 9 9 9 9 8 10 12 13 13 12 11 12 12 11 9 9 8 8 8 9 9 9 9 9 8 8 7 7 7 7 7 8 9 9
9 10 10 9 11 12 13 14 14 13 13 15 15 14 10 9 8 7 7 7 8 10 11 14 15 15 14 14 14 14 14 11 11 10 10 9 10 10 10 10 10 11 12 11 11 12 12 11 12
11 13 13 12 12 11 12 14 14 14 14 13 13 15 14 12 11 9 6 6 6 7 9 11 14 16 17 17 16 17 17 16 15 15 14 13 13 13 13 13 13 14 14 13 13 14 15 14 13
16 16 17 17 17 16 14 13 14 13 15 17 14 15 13 13 13 11 9 7 6 7 7 8 9 12 16 18 19 19 20 20 19 19 18 18 18 17 16 17 16 15 15 16 17 17 17 16 16
21 20 20 21 20 20 18 17 18 15 16 16 16 16 15 13 12 13 13 12 12 10 9 9 10 10 12 14 15 17 19 21 22 21 22 22 22 21 21 21 20 20 20 21 22 22 22 21 21
25 24 22 25 23 22 22 21 22 17 17 18 20 18 18 16 15 14 14 14 14 14 14 14 13 12 13 14 15 16 17 19 21 23 24 25 26 25 25 25 24 25 25 26 26 26 26 26 26
29 27 25 28 27 26 25 24 26 22 22 22 25 22 19 20 19 18 18 17 18 16 15 16 16 17 17 17 18 18 18 19 20 21 23 25 27 28 28 29 30 29 29 29 29 30 29 29 29
31 29 30 29 32 31 28 27 27 27 21 26 24 26 24 23 23 24 24 22 21 20 21 21 19 18 19 20 20 21 21 22 23 22 23 25 27 29 30 32 33 33 33 33 33 33 33 33 32
34 30 33 30 35 34 32 29 29 31 23 27 27 28 27 25 25 28 29 28 26 24 26 24 24 23 23 22 23 24 24 24 24 25 26 27 28 29 31 32 33 34 34 34 34 34 34 34 34
36 31 32 31 31 34 35 29 32 27 24 30 29 28 29 28 28 30 32 31 31 30 31 30 29 28 27 27 27 27 27 27 28 27 27 29 30 31 31 32 32 32 33 33 34 35 35 36 36
38 34 33 30 31 35 37 32 37 23 30 30 31 28 31 28 28 27 32 35 34 34 35 36 35 33 32 31 31 31 31 31 30 30 30 29 31 33 35 34 32 32 31 32 32 33 33 34 35
41 40 35 28 32 39 42 39 33 31 35 30 33 33 32 30 29 26 28 29 34 36 38 39 39 37 35 35 35 35 35 33 32 32 32 32 32 35 35 35 36 35 33 33 33 33 33 33 34
43 43 39 28 34 40 45 48 26 36 39 36 36 36 35 32 31 29 29 28 30 35 38 40 37 35 36 37 38 37 36 35 32 33 34 33 34 34 36 36 36 35 34 33 32 32 34 35 36
43 49 45 38 28 40 47 48 33 35 41 41 39 41 38 36 34 33 33 34 35 35 35 33 33 33 34 35 37 37 37 34 32 34 37 36 36 36 36 36 36 36 36 36 36 38 40 42 42
46 49 48 45 30 40 49 50 47 36 42 40 38 39 40 39 34 35 39 40 37 36 38 35 35 35 37 36 36 37 36 33 34 37 38 39 38 38 38 36 36 36 37 37 38 39 40 41 42
50 51 50 45 41 49 48 52 47 41 37 32 30 32 35 38 36 36 38 41 42 37 38 39 38 36 38 38 37 39 37 36 34 38 39 38 35 36 37 37 38 38 37 37 39 41 41 41 42
51 52 53 51 48 53 53 50 49 42 36 31 31 27 28 26 28 32 36 36 39 42 40 40 42 42 42 42 40 40 39 36 37 37 38 39 39 38 38 40 41 41 40 40 42 42 43 42 42
48 53 53 56 54 55 57 53 48 39 39 33 23 35 27 31 31 34 37 39 41 43 45 43 43 45 48 46 45 44 42 42 42 42 43 45 45 45 42 41 42 44 44 45 43 43 41 41 40
54 43 52 52 55 56 54 55 54 45 38 41 34 35 31 23 30 27 28 33 35 38 42 45 43 44 44 46 47 46 45 45 45 47 50 50 50 49 46 46 47 46 46 45 44 44 43 42 40
52 48 48 52 57 57 58 59 59 56 48 50 45 41 44 42 43 40 40 41 42 47 45 45 47 52 48 46 48 50 47 48 52 52 54 55 54 53 49 47 47 47 47 47 45 45 43 43 44
51 52 54 55 58 61 57 54 63 63 61 56 56 57 57 56 52 49 46 45 47 49 50 50 50 48 51 51 49 51 53 49 49 54 56 55 55 55 53 49 48 50 49 48 49 49 47 47 47
53 53 54 57 60 62 62 63 65 66 65 64 61 61 61 63 60 57 55 54 55 54 56 57 58 57 56 55 54 54 56 56 54 54 54 56 56 55 55 53 53 51 51 50 51 52 51 48 48
57 58 62 63 63 64 64 73 70 65 67 68 69 65 64 60 60 60 61 59 59 59 59 58 61 61 60 60 59 56 57 57 57 57 57 58 58 57 56 57 56 56 54 52 51 52 54 53 50
64 63 58 62 64 69 70 69 71 68 69 73 73 72 65 64 63 64 62 63 65 61 61 53 54 57 57 59 65 70 67 63 62 60 58 58 55 56 59 58 57 56 55 53 53 53 55 57 54
69 70 71 70 65 68 74 76 74 71 71 73 75 68 66 64 64 67 69 71 66 59 58 59 60 62 55 52 57 61 64 63 66 67 59 55 57 57 56 54 55 55 57 56 56 56 57 57 58
72 72 70 70 70 77 81 82 68 73 76 76 76 78 77 76 78 78 70 68 65 57 60 62 63 59 59 58 57 60 60 62 69 70 63 59 55 59 63 65 65 67 63 59 56 57 58 58 59
77 77 74 69 73 73 74 84 73 76 77 75 80 81 82 82 82 81 81 69 70 70 68 71 66 62 60 61 62 62 62 64 72 71 66 63 63 65 66 68 71 71 74 66 64 60 61 60 57
Wind_Direction
316 322 335 346 345 340 336 340 344 352 351 339 328 318 312 299 286 283 281 283 283 287 301 314 321 338 37 175 108 113 130 138 138 147 148 144 145 139 139 137 147 144 165 155 155 187 209 223 229
348 351 356 357 357 353 353 354 0 358 349 347 353 346 327 313 295 284 277 272 267 267 268 277 278 281 270 257 224 215 210 177 160 164 160 160 166 162 160 163 169 175 188 183 201 224 254 270 281
5 5 1 1 5 10 10 8 15 9 3 8 13 21 7 354 334 307 297 282 272 265 265 268 275 276 276 268 268 259 238 220 221 216 205 198 192 192 194 195 201 222 229 242 252 273 279 274 274
2 3 2 354 358 1 3 2 7 10 0 1 2 4 6 358 350 343 326 303 283 270 261 260 260 268 275 277 271 269 270 271 252 235 245 239 227 221 225 226 229 239 247 257 270 275 274 283 284
346 347 351 349 348 350 351 351 351 354 345 343 347 347 352 331 337 344 338 335 306 281 265 259 259 260 263 269 273 270 267 265 267 265 258 260 263 257 251 253 256 261 266 269 273 273 274 276 276
336 335 338 337 344 345 343 340 340 339 335 339 335 335 342 338 320 328 331 334 325 310 291 273 261 258 259 259 262 267 270 269 265 267 267 261 258 262 262 261 262 265 269 274 276 277 279 280 280
316 319 321 323 326 327 328 327 324 325 326 326 326 324 331 332 327 316 318 318 311 306 302 291 280 271 263 260 260 263 264 264 264 262 262 262 263 263 260 260 261 265 268 268 273 277 278 279 276
305 309 309 310 310 309 309 307 303 305 303 304 307 307 313 314 319 318 311 306 305 299 292 284 278 273 273 273 271 269 266 263 264 265 264 262 261 261 263 263 263 264 265 266 268 268 271 272 269
299 301 298 299 299 297 298 297 290 292 283 286 282 290 295 298 295 293 295 296 295 294 291 284 278 276 273 271 270 271 271 270 267 264 263 264 264 264 263 264 264 262 262 262 264 266 267 266 265
293 297 290 293 291 291 292 290 287 288 282 274 274 281 281 285 284 282 279 283 283 285 284 283 284 280 277 276 274 273 271 269 267 266 266 266 264 263 263 265 265 265 265 265 265 263 264 266 263
291 294 287 290 289 290 289 286 288 285 283 271 276 276 274 267 273 274 272 272 274 277 277 279 279 279 280 278 277 274 272 269 268 268 268 266 263 262 262 262 263 263 264 264 263 264 265 264 265
291 292 286 287 286 292 288 287 286 284 284 276 275 273 273 268 260 263 267 268 272 271 270 271 274 274 274 276 276 274 274 273 272 271 268 266 266 265 265 265 266 266 266 266 265 264 266 266 265
291 288 287 285 287 288 287 288 282 289 280 277 277 275 274 274 270 263 264 267 271 270 270 271 270 271 272 271 272 272 270 270 271 272 271 269 267 266 266 266 267 267 268 267 267 266 266 267 267
293 292 289 287 287 284 281 277 285 296 276 280 282 278 277 277 277 281 266 262 266 269 271 270 271 270 269 271 271 270 270 270 270 272 273 273 272 271 268 266 266 266 267 270 271 271 270 270 269
292 292 290 292 284 278 275 274 290 287 280 280 278 278 282 286 287 293 279 269 267 267 266 269 268 271 274 271 269 267 267 268 270 271 275 277 275 274 272 268 266 266 269 270 271 272 272 272 272
292 292 292 280 278 283 281 284 281 278 276 274 276 278 280 284 288 289 292 279 267 265 268 269 272 272 272 272 270 268 268 270 271 271 273 276 276 275 272 268 266 265 265 269 270 271 273 274 274
294 288 284 286 290 281 277 278 277 270 274 274 277 283 285 285 283 285 280 278 273 270 269 272 273 273 273 274 271 269 269 269 268 269 273 275 271 270 271 267 265 264 263 265 266 268 268 269 270
280 283 287 289 292 277 278 280 280 277 279 285 287 285 284 283 283 273 271 273 274 273 273 274 274 273 274 272 273 271 268 269 268 269 269 271 271 267 267 265 261 261 263 263 264 266 267 268 269
281 282 285 289 288 279 277 282 283 284 281 286 288 286 282 280 279 275 269 268 271 270 271 275 276 276 276 274 271 268 268 267 271 272 268 267 270 271 265 260 259 261 262 264 265 266 266 267 268
279 283 283 284 283 280 284 281 283 286 286 292 289 291 292 285 280 276 271 271 271 269 269 272 275 274 271 273 272 271 269 268 269 272 271 269 272 270 263 260 260 262 264 266 267 266 265 267 269
274 277 280 279 281 283 285 282 282 280 285 287 286 294 288 289 283 270 267 266 265 266 269 271 272 273 275 270 268 269 268 270 270 272 269 268 267 269 273 271 265 263 265 266 267 266 269 270 272
269 275 274 276 277 280 280 279 281 286 279 278 284 283 285 282 288 280 280 283 277 276 278 279 272 268 271 276 275 271 268 267 268 270 272 270 270 270 270 270 270 268 266 266 265 265 265 267 269
274 274 274 275 274 273 274 280 280 284 280 281 287 285 285 283 277 277 281 278 275 280 279 277 279 282 278 276 277 272 268 272 272 269 267 268 269 267 266 268 266 265 263 265 265 265 266 268 269
270 273 276 272 271 268 272 280 274 273 278 280 288 290 294 289 287 287 283 279 279 278 278 280 277 275 275 274 273 274 271 267 264 265 264 264 264 265 264 266 265 264 265 265 266 267 269 269 269
272 273 276 273 271 271 274 270 267 272 280 284 288 289 292 293 292 291 289 284 281 280 280 279 278 279 278 276 274 271 272 270 266 265 264 263 263 266 268 262 259 260 262 264 267 272 271 267 268
271 272 273 277 275 270 267 265 270 274 281 287 287 289 291 289 291 293 288 285 282 282 277 273 275 276 273 274 274 270 267 266 263 259 262 262 262 261 259 262 261 260 260 264 267 270 273 272 268
273 272 275 274 272 273 269 261 267 271 275 279 284 288 290 290 289 288 289 292 289 286 283 274 266 262 262 263 265 269 271 270 267 263 261 257 252 254 254 258 260 263 263 264 265 267 269 271 270
274 276 276 275 274 273 269 270 267 272 277 277 279 281 280 278 277 279 279 278 277 279 279 278 278 276 271 266 259 261 265 270 269 268 252 240 245 252 258 261 265 267 267 268 268 267 266 267 268
274 275 274 273 271 276 277 269 269 272 272 277 280 277 275 274 272 274 275 276 280 279 279 280 283 278 274 276 266 263 258 257 260 261 251 256 255 265 269 270 269 269 273 272 269 268 266 264 265
278 278 280 277 279 275 274 274 271 274 279 278 273 274 273 274 273 272 275 271 270 274 273 276 272 269 266 272 271 259 258 255 252 251 248 247 257 266 274 277 275 272 272 274 274 269 267 265 262
Height
5871 5870 5869 5868 5870 5867 5865 5865 5863 5863 5862 5861 5860 5859 5858 5858 5857 5859 5857 5857 5857 5857 5858 5858 5858 5859 5860 5860 5860 5861 5861 5860 5861 5861 5861 5862 5863 5863 5864 5865 5867 5867 5869 5870 5870 5871 5873 5874 5875
5871 5870 5869 5868 5868 5866 5865 5864 5863 5862 5862 5861 5860 5858 5857 5856 5856 5855 5855 5855 5855 5856 5856 5857 5857 5857 5858 5859 5860 5860 5861 5861 5861 5861 5861 5861 5862 5863 5863 5864 5866 5867 5868 5868 5869 5870 5871 5871 5872
5871 5870 5870 5868 5868 5867 5866 5865 5863 5862 5862 5861 5860 5858 5857 5856 5855 5854 5854 5854 5853 5853 5854 5854 5855 5855 5856 5857 5858 5859 5860 5860 5860 5860 5860 5861 5861 5862 5863 5864 5864 5866 5866 5867 5868 5869 5870 5871 5871
5871 5872 5871 5870 5868 5867 5866 5865 5864 5863 5862 5861 5859 5858 5857 5855 5854 5853 5852 5852 5852 5851 5851 5852 5853 5854 5855 5855 5855 5856 5857 5858 5859 5859 5860 5860 5860 5861 5862 5862 5862 5863 5865 5866 5866 5867 5869 5869 5869
5871 5871 5871 5870 5869 5868 5866 5864 5863 5863 5862 5860 5859 5858 5857 5854 5853 5852 5851 5851 5850 5850 5850 5850 5851 5852 5852 5853 5853 5853 5854 5854 5855 5856 5857 5857 5858 5859 5859 5860 5860 5861 5862 5862 5863 5864 5865 5866 5866
5871 5871 5870 5869 5869 5868 5866 5864 5863 5862 5861 5860 5859 5857 5856 5854 5852 5851 5851 5850 5849 5849 5848 5848 5849 5850 5850 5850 5850 5850 5851 5851 5852 5853 5854 5855 5856 5856 5857 5858 5859 5859 5859 5859 5860 5861 5861 5862 5863
5869 5869 5868 5867 5866 5866 5865 5863 5862 5861 5859 5858 5858 5856 5856 5853 5851 5851 5850 5849 5848 5847 5847 5847 5846 5847 5847 5847 5847 5848 5848 5848 5849 5849 5850 5852 5852 5853 5854 5855 5855 5855 5856 5857 5858 5859 5858 5859 5860
5866 5866 5865 5864 5863 5862 5861 5860 5859 5859 5858 5856 5855 5854 5853 5852 5850 5849 5848 5848 5847 5846 5845 5845 5845 5844 5844 5844 5844 5845 5845 5845 5846 5846 5847 5847 5848 5849 5850 5851 5851 5852 5853 5854 5854 5855 5856 5856 5857
5862 5862 5861 5859 5858 5857 5856 5855 5854 5855 5854 5853 5851 5850 5850 5849 5848 5847 5846 5845 5844 5844 5843 5843 5842 5842 5842 5841 5841 5841 5841 5841 5842 5843 5843 5844 5844 5845 5846 5847 5847 5847 5848 5849 5850 5850 5851 5852 5853
5857 5858 5855 5853 5851 5852 5851 5850 5848 5850 5849 5847 5845 5846 5846 5845 5844 5843 5842 5841 5841 5840 5840 5839 5840 5839 5839 5839 5838 5838 5837 5837 5838 5838 5838 5839 5840 5840 5841 5842 5841 5842 5842 5843 5843 5845 5845 5846 5847
5852 5853 5848 5848 5845 5845 5845 5844 5843 5843 5845 5840 5842 5840 5840 5840 5839 5838 5837 5837 5836 5836 5835 5835 5835 5835 5835 5834 5834 5834 5834 5833 5833 5833 5833 5834 5834 5835 5835 5835 5836 5836 5837 5837 5837 5838 5838 5839 5840
5844 5847 5843 5844 5838 5838 5837 5838 5837 5835 5838 5834 5834 5833 5833 5833 5833 5832 5832 5831 5830 5831 5829 5829 5829 5829 5829 5829 5829 5829 5829 5829 5828 5829 5829 5828 5828 5828 5828 5829 5829 5830 5830 5830 5830 5831 5831 5832 5832
5838 5839 5837 5837 5835 5831 5829 5832 5828 5830 5830 5826 5826 5826 5825 5825 5825 5826 5826 5825 5824 5824 5822 5823 5823 5823 5823 5824 5823 5824 5823 5823 5823 5823 5823 5823 5822 5822 5821 5822 5822 5823 5823 5823 5823 5823 5823 5824 5824
5831 5832 5832 5832 5830 5824 5820 5824 5821 5827 5819 5821 5819 5820 5818 5819 5818 5818 5817 5817 5817 5817 5816 5814 5815 5815 5816 5817 5817 5816 5817 5816 5817 5816 5816 5816 5816 5815 5815 5815 5815 5815 5815 5815 5814 5814 5815 5815 5815
5823 5823 5824 5828 5822 5815 5811 5814 5819 5819 5812 5814 5813 5812 5811 5812 5812 5812 5810 5810 5810 5809 5806 5806 5805 5806 5807 5807 5807 5808 5808 5809 5810 5809 5809 5808 5808 5807 5807 5807 5806 5807 5807 5806 5806 5806 5806 5806 5806
5816 5812 5814 5822 5817 5810 5804 5799 5817 5808 5804 5806 5805 5804 5804 5805 5804 5805 5805 5804 5802 5799 5799 5797 5797 5799 5799 5798 5798 5799 5799 5800 5802 5801 5801 5801 5800 5800 5799 5799 5799 5799 5799 5799 5798 5798 5798 5798 5798
5809 5800 5802 5806 5813 5801 5794 5791 5806 5804 5798 5797 5799 5797 5798 5798 5797 5797 5795 5794 5794 5792 5790 5791 5791 5791 5791 5791 5790 5790 5790 5791 5792 5792 5792 5792 5792 5792 5791 5791 5791 5792 5791 5791 5790 5790 5790 5790 5789
5794 5791 5792 5794 5805 5794 5783 5781 5786 5797 5790 5791 5794 5793 5791 5790 5792 5790 5785 5783 5783 5784 5783 5783 5784 5784 5782 5781 5782 5782 5782 5783 5782 5782 5783 5782 5782 5782 5782 5782 5783 5783 5783 5782 5782 5782 5781 5780 5779
5785 5783 5781 5787 5789 5778 5776 5770 5777 5783 5786 5786 5785 5784 5784 5782 5782 5781 5777 5774 5772 5774 5774 5774 5774 5775 5774 5773 5773 5773 5775 5775 5775 5774 5772 5772 5772 5773 5773 5773 5774 5774 5773 5773 5773 5772 5771 5771 5770
5777 5775 5773 5773 5775 5769 5766 5761 5765 5772 5774 5779 5777 5775 5774 5775 5773 5770 5767 5768 5765 5764 5765 5766 5766 5764 5764 5764 5764 5764 5765 5766 5765 5765 5765 5764 5764 5763 5763 5763 5763 5764 5764 5764 5763 5762 5761 5761 5761
5770 5766 5764 5759 5760 5760 5756 5747 5753 5764 5765 5767 5768 5766 5764 5762 5762 5761 5758 5755 5754 5754 5752 5754 5754 5755 5754 5753 5754 5755 5755 5757 5756 5756 5754 5752 5752 5754 5755 5754 5753 5752 5752 5752 5751 5751 5752 5751 5751
5754 5758 5755 5752 5748 5745 5746 5739 5736 5749 5754 5754 5758 5760 5757 5755 5752 5751 5752 5751 5746 5744 5743 5743 5741 5740 5741 5741 5743 5743 5744 5744 5746 5744 5743 5742 5742 5742 5742 5743 5744 5743 5742 5741 5740 5740 5740 5740 5740
5747 5744 5745 5745 5741 5735 5731 5733 5732 5733 5735 5739 5743 5744 5746 5745 5743 5744 5742 5740 5740 5736 5733 5731 5731 5732 5730 5729 5729 5730 5729 5733 5734 5730 5728 5728 5729 5728 5728 5729 5728 5729 5729 5729 5729 5729 5729 5729 5729
5736 5733 5731 5729 5728 5724 5726 5728 5720 5721 5720 5721 5724 5724 5722 5721 5724 5725 5726 5728 5728 5727 5723 5721 5720 5719 5718 5716 5714 5716 5716 5715 5715 5716 5714 5714 5714 5715 5715 5715 5716 5716 5716 5717 5715 5714 5716 5716 5715
5723 5719 5714 5712 5713 5714 5717 5712 5707 5707 5713 5712 5712 5708 5705 5702 5703 5702 5704 5707 5709 5712 5712 5709 5708 5706 5704 5704 5703 5700 5701 5701 5701 5700 5700 5701 5700 5701 5703 5701 5700 5702 5702 5701 5702 5702 5700 5699 5701
5707 5704 5701 5695 5698 5698 5700 5688 5697 5705 5704 5701 5696 5694 5691 5688 5685 5686 5686 5688 5691 5695 5696 5695 5694 5691 5687 5687 5683 5681 5680 5681 5681 5682 5684 5685 5685 5686 5684 5686 5687 5688 5687 5687 5687 5687 5687 5688 5687
5692 5688 5688 5678 5680 5674 5683 5687 5687 5693 5692 5684 5680 5676 5673 5672 5672 5671 5666 5665 5665 5667 5664 5669 5671 5671 5672 5673 5671 5671 5669 5667 5666 5666 5666 5666 5666 5668 5669 5670 5672 5674 5673 5672 5671 5671 5671 5671 5671
5669 5672 5668 5664 5654 5653 5663 5666 5675 5681 5674 5670 5663 5659 5658 5659 5659 5655 5651 5643 5642 5645 5646 5645 5647 5649 5650 5652 5652 5654 5655 5654 5653 5651 5649 5649 5648 5650 5652 5653 5656 5658 5658 5659 5657 5656 5656 5656 5655
5654 5650 5650 5647 5641 5629 5629 5640 5669 5659 5654 5651 5643 5635 5636 5637 5636 5635 5638 5635 5632 5633 5629 5629 5630 5631 5632 5633 5636 5636 5635 5634 5634 5634 5634 5636 5636 5637 5637 5636 5636 5638 5640 5641 5641 5641 5640 5640 5638
5630 5629 5631 5623 5621 5616 5607 5604 5651 5644 5637 5626 5614 5618 5617 5618 5617 5619 5619 5622 5619 5616 5615 5613 5613 5613 5614 5616 5617 5619 5619 5617 5616 5616 5617 5617 5618 5617 5617 5615 5616 5618 5618 5620 5621 5620 5621 5623 5622